Simultaneous Nadir Overpasses (SNOs) Predictions

Prediction of SNOs between GOES-14 and NOAA-20 Satellite Orbit:

Table of predicted SNOs for the next 14.0 days since TLE Epoch: 2/14/2025
Index Date Time (GOES-14) GOES-14 Lat,Lon NOAA-20 Lat,Lon Distance(km) Time Diff (sec)
1 02/15/2025 20:47:15 -0.43,-107.71 -1.07,-110.46 314.33 80
2 02/16/2025 20:25:51 -0.42,-107.69 -0.03,-105.93 200.66 80
3 02/18/2025 08:50:18 0.44,-107.70 1.22,-111.20 398.56 80
4 02/19/2025 08:28:53 0.43,-107.68 0.23,-106.66 116.36 80
5 02/20/2025 20:53:28 -0.45,-107.63 -1.42,-111.96 493.07 80
6 02/21/2025 20:32:03 -0.45,-107.61 -0.42,-107.42 21.77 80
7 02/24/2025 08:37:44 0.46,-107.60 0.60,-108.15 63.54 80
8 02/25/2025 08:16:19 0.46,-107.58 -0.40,-103.61 451.17 80
9 02/26/2025 20:40:54 -0.47,-107.52 -0.77,-108.91 158.64 80
10 02/27/2025 20:19:29 -0.46,-107.50 0.23,-104.38 356.12 80
